This is the latest recevied weather packets stored in our database for station/object K9VSK-9. If no packets are shown the sender has not sent any weather packets the latest 10 day(s).
| Time | Temp. | Humidity | Pressure | Rain* | Wind** | Luminosity | Snow |
|---|---|---|---|---|---|---|---|
| 1777495874 | 13.89° C | 45% | 1016 hPa | 0 mm | - | - | - |
| 1777495573 | 14.44° C | 48% | 1016 hPa | 0 mm | - | - | - |
| 1777495273 | 15° C | 49% | 1016.1 hPa | 0 mm | - | - | - |
| 1777494973 | 13.89° C | 53% | 1016.2 hPa | 0 mm | - | - | - |
| 1777494673 | 14.44° C | 53% | 1016.1 hPa | 0 mm | - | - | - |
| 1777494372 | 15° C | 51% | 1016.2 hPa | 0 mm | - | - | - |
| 1777494072 | 14.44° C | 53% | 1016.1 hPa | 0 mm | - | - | - |
| 1777493772 | 14.44° C | 51% | 1016.2 hPa | 0 mm | - | - | - |
| 1777493471 | 13.89° C | 50% | 1016.2 hPa | 0 mm | - | - | - |
| 1777493171 | 13.89° C | 52% | 1016.3 hPa | 0 mm | - | - | - |
| 1777492871 | 13.89° C | 51% | 1016.3 hPa | 0 mm | - | - | - |
| 1777492570 | 13.89° C | 49% | 1016.4 hPa | 0 mm | - | - | - |
| 1777492270 | 13.89° C | 51% | 1016.4 hPa | 0 mm | - | - | - |
| 1777491970 | 13.89° C | 52% | 1016.4 hPa | 0 mm | - | - | - |
| 1777491670 | 13.89° C | 51% | 1016.4 hPa | 0 mm | - | - | - |
| 1777491369 | 13.89° C | 55% | 1016.3 hPa | 0 mm | - | - | - |
| 1777491069 | 13.89° C | 50% | 1016.4 hPa | 0 mm | - | - | - |
| 1777490769 | 13.89° C | 56% | 1016.4 hPa | 0 mm | - | - | - |
| 1777490469 | 13.89° C | 56% | 1016.4 hPa | 0 mm | - | - | - |
| 1777490168 | 13.89° C | 50% | 1016.3 hPa | 0 mm | - | - | - |
| 1777489868 | 13.89° C | 54% | 1016.3 hPa | 0 mm | - | - | - |
| 1777489568 | 13.89° C | 54% | 1016.4 hPa | 0 mm | - | - | - |
| 1777489267 | 13.89° C | 53% | 1016.4 hPa | 0 mm | - | - | - |
| 1777488967 | 13.89° C | 64% | 1016.4 hPa | 0 mm | - | - | - |
| 1777488667 | 13.89° C | 60% | 1016.4 hPa | 0 mm | - | - | - |
* Rain latest hour (hover to see other rain measurements)
** Current wind speed in m/s (hover to see current wind gust speed)